Battle Mountain, Nevada, United States (89820)
Lat: 40.64N, Lon: 116.93W
Wx Zone: NVZ036
Local Info
Past Weather Observations for Wednesday, July 16, 2014

NOTE: This archive is for the closest National Weather Service station to Battle Mountain. Information may differ from the station used for current weather conditions.

Click here for Long-term Archive

Time Weather Temperature Dewpoint Humidity Pressure Winds Precip Visibility
23:56
Clear
63°F / 17°C 30°F / -1°C 30% 30.04 in
(1017 mb)
S 5.8 mph
(S 9 kph)
- 10SM
21:56
Clear
70°F / 21°C 25°F / -4°C 18% 30.01 in
(1016 mb)
N 4.6 mph
(N 7 kph)
- 10SM
20:56
Clear
70°F / 21°C 25°F / -4°C 18% 30.01 in
(1016 mb)
Calm - 10SM
19:56
Clear
79°F / 26°C 30°F / -1°C 17% 30.01 in
(1016 mb)
NE 3.5 mph
(NE 6 kph)
- 10SM
18:56
Clear
90°F / 32°C 27°F / -3°C 10% 29.98 in
(1015 mb)
N 8.1 mph
(N 13 kph)
- 10SM
17:56
Clear
95°F / 35°C 28°F / -2°C 9% 29.98 in
(1015 mb)
NNW 10.4 mph
(NNW 17 kph)
- 10SM
16:56
Clear
97°F / 36°C 27°F / -3°C 8% 29.98 in
(1015 mb)
NNE 8.1 mph
(NNE 13 kph)
- 10SM
15:56
Clear
95°F / 35°C 28°F / -2°C 9% 29.98 in
(1015 mb)
N 4.6 mph
(N 7 kph)
- 10SM
14:56
Clear
97°F / 36°C 32°F / 0°C 10% 30.01 in
(1016 mb)
NNW 10.4 mph
(NNW 17 kph)
- 10SM
13:56
Clear
97°F / 36°C 36°F / 2°C 12% 30.04 in
(1017 mb)
NW 8.1 mph
(NW 13 kph)
- 10SM
12:56
Clear
93°F / 34°C 36°F / 2°C 13% 30.06 in
(1018 mb)
Variable 6.9 mph
(Variable 11 kph)
- 10SM
11:56
Clear
95°F / 35°C 36°F / 2°C 12% 30.09 in
(1019 mb)
N 16.1 mph
(N 26 kph)
- 10SM
10:56
Clear
91°F / 33°C 39°F / 4°C 16% 30.09 in
(1019 mb)
Variable 6.9 mph
(Variable 11 kph)
- 10SM
09:56
Clear
90°F / 32°C 41°F / 5°C 18% 30.12 in
(1020 mb)
Variable 5.8 mph
(Variable 9 kph)
- 10SM
08:56
Clear
84°F / 29°C 41°F / 5°C 22% 30.12 in
(1020 mb)
NE 9.2 mph
(NE 15 kph)
- 10SM
07:56
Clear
81°F / 27°C 41°F / 5°C 24% 30.12 in
(1020 mb)
N 8.1 mph
(N 13 kph)
- 7SM
06:56
Clear
73°F / 23°C 41°F / 5°C 31% 30.12 in
(1020 mb)
Calm - 7SM
05:56
Clear
70°F / 21°C 41°F / 5°C 35% 30.12 in
(1020 mb)
Calm - 9SM
04:56
Clear
63°F / 17°C 37°F / 3°C 39% 30.12 in
(1020 mb)
SSW 5.8 mph
(SSW 9 kph)
- 7SM
03:56
Clear
Hazy
66°F / 19°C 37°F / 3°C 35% 30.09 in
(1019 mb)
NW 6.9 mph
(NW 11 kph)
- 6SM
02:56
Partly Cloudy
Hazy
73°F / 23°C 37°F / 3°C 27% 30.09 in
(1019 mb)
NNE 10.4 mph
(NNE 17 kph)
- 6SM
01:56
Overcast
Hazy
75°F / 24°C 36°F / 2°C 24% 30.09 in
(1019 mb)
NE 8.1 mph
(NE 13 kph)
- 4SM
00:56
Overcast
Hazy
72°F / 22°C 36°F / 2°C 27% 30.06 in
(1018 mb)
NNW 4.6 mph
(NNW 7 kph)
- 4SM
Time Weather Temperature Dewpoint Humidity Pressure Winds Precip Visibility


Weather for websites

WeatherForYou.com, LLC is not responsible for any damages or problems caused by this service. Current weather conditions are obtained from the closest station including government and personal stations which may have varying degrees of accuracy. Weather forecasts are derived from the NOAA NDFD. Like all things, this site belongs to Jesus Christ... He just trusts me to maintain it. If you have any questions or comments email webmaster@weatherforyou.com

Copyright © 2014, WeatherForYou.com LLC. All rights reserved.